QPF
0.00 0.02 0.06 0.11 0.17 0.12 0.05 0.01 0.00 0.00 0.00 0.00 0.00 0.00 0.00 0.01 0.03 0.08 0.07 0.05 0.02 0.00 0.00 0.00 0.00 0.00 0.01 0.01 0.01 0.01 0.00 0.00 0.00 0.00 0.00 0.00 0.00 0.00 0.01 0.00 0.01 0.01 0.01 0.01 0.01 0.01 0.01 0.02 0.02
0.01 0.05 0.13 0.26 0.32 0.12 0.03 0.01 0.01 0.00 0.00 0.00 0.00 0.00 0.02 0.01 0.03 0.07 0.05 0.05 0.02 0.01 0.00 0.00 0.00 0.00 0.01 0.01 0.01 0.01 0.00 0.00 0.00 0.00 0.00 0.00 0.01 0.01 0.01 0.01 0.02 0.01 0.01 0.01 0.01 0.01 0.01 0.01 0.02
0.03 0.06 0.13 0.26 0.21 0.12 0.04 0.00 0.00 0.01 0.00 0.00 0.00 0.01 0.02 0.04 0.05 0.05 0.04 0.03 0.03 0.02 0.01 0.00 0.01 0.01 0.01 0.01 0.01 0.01 0.00 0.00 0.00 0.01 0.01 0.01 0.01 0.01 0.02 0.02 0.01 0.02 0.02 0.01 0.02 0.01 0.01 0.01 0.02
0.03 0.06 0.10 0.14 0.09 0.03 0.02 0.01 0.00 0.00 0.00 0.01 0.01 0.02 0.04 0.06 0.06 0.05 0.03 0.04 0.04 0.02 0.01 0.01 0.01 0.01 0.01 0.01 0.01 0.01 0.01 0.01 0.01 0.01 0.01 0.01 0.01 0.02 0.01 0.01 0.01 0.01 0.02 0.02 0.02 0.01 0.01 0.01 0.01
0.02 0.06 0.11 0.09 0.04 0.01 0.01 0.00 0.00 0.00 0.00 0.01 0.01 0.03 0.06 0.07 0.08 0.13 0.07 0.04 0.05 0.07 0.05 0.03 0.03 0.02 0.01 0.01 0.01 0.01 0.01 0.01 0.01 0.01 0.01 0.01 0.01 0.01 0.01 0.01 0.01 0.01 0.01 0.01 0.01 0.01 0.01 0.01 0.02
0.01 0.02 0.08 0.08 0.03 0.01 0.01 0.00 0.00 0.00 0.00 0.01 0.01 0.03 0.09 0.11 0.12 0.11 0.13 0.10 0.07 0.16 0.14 0.10 0.05 0.03 0.02 0.02 0.02 0.02 0.01 0.01 0.01 0.01 0.01 0.01 0.01 0.01 0.01 0.01 0.01 0.01 0.01 0.01 0.00 0.00 0.01 0.02 0.02
0.00 0.01 0.03 0.04 0.02 0.01 0.00 0.00 0.00 0.00 0.00 0.00 0.01 0.06 0.10 0.14 0.17 0.11 0.09 0.10 0.10 0.16 0.18 0.17 0.09 0.05 0.03 0.03 0.03 0.02 0.02 0.02 0.01 0.01 0.01 0.01 0.01 0.01 0.01 0.01 0.01 0.00 0.01 0.01 0.00 0.00 0.01 0.02 0.02
0.00 0.00 0.01 0.01 0.01 0.01 0.00 0.00 0.00 0.00 0.00 0.01 0.02 0.06 0.07 0.06 0.08 0.09 0.11 0.13 0.15 0.20 0.22 0.18 0.10 0.06 0.04 0.03 0.03 0.02 0.02 0.02 0.02 0.02 0.02 0.01 0.01 0.01 0.01 0.01 0.01 0.00 0.00 0.00 0.00 0.00 0.00 0.01 0.02
0.00 0.00 0.01 0.01 0.00 0.00 0.00 0.00 0.00 0.00 0.01 0.02 0.04 0.08 0.06 0.05 0.04 0.09 0.20 0.21 0.22 0.25 0.15 0.08 0.06 0.05 0.04 0.03 0.03 0.02 0.02 0.02 0.03 0.03 0.03 0.02 0.02 0.01 0.01 0.00 0.01 0.00 0.00 0.00 0.01 0.01 0.01 0.01 0.01
0.00 0.00 0.00 0.01 0.00 0.00 0.00 0.00 0.00 0.00 0.02 0.04 0.06 0.07 0.05 0.03 0.04 0.07 0.15 0.14 0.16 0.31 0.30 0.08 0.05 0.04 0.04 0.04 0.02 0.01 0.01 0.01 0.01 0.02 0.02 0.02 0.02 0.03 0.02 0.02 0.02 0.01 0.00 0.01 0.01 0.02 0.02 0.01 0.01
0.00 0.00 0.00 0.00 0.00 0.00 0.00 0.00 0.00 0.00 0.01 0.03 0.03 0.03 0.02 0.02 0.03 0.05 0.09 0.12 0.16 0.22 0.28 0.19 0.09 0.07 0.06 0.04 0.03 0.02 0.01 0.01 0.01 0.02 0.02 0.03 0.03 0.03 0.02 0.02 0.02 0.01 0.01 0.01 0.01 0.01 0.02 0.02 0.04
0.00 0.00 0.00 0.00 0.00 0.00 0.00 0.00 0.00 0.00 0.02 0.02 0.02 0.02 0.04 0.02 0.03 0.05 0.08 0.13 0.19 0.21 0.18 0.20 0.12 0.11 0.11 0.09 0.08 0.05 0.03 0.03 0.03 0.02 0.02 0.02 0.03 0.03 0.02 0.02 0.02 0.02 0.02 0.01 0.01 0.01 0.02 0.04 0.06
0.00 0.00 0.00 0.00 0.00 0.00 0.00 0.00 0.00 0.01 0.03 0.02 0.02 0.03 0.07 0.06 0.04 0.06 0.12 0.22 0.27 0.25 0.21 0.27 0.25 0.19 0.18 0.15 0.11 0.09 0.07 0.07 0.08 0.06 0.04 0.03 0.03 0.03 0.02 0.01 0.01 0.02 0.02 0.01 0.01 0.02 0.03 0.04 0.06
0.00 0.00 0.00 0.00 0.00 0.00 0.00 0.00 0.00 0.01 0.02 0.02 0.01 0.03 0.08 0.06 0.06 0.09 0.15 0.21 0.25 0.29 0.31 0.30 0.29 0.28 0.23 0.15 0.10 0.09 0.09 0.08 0.08 0.06 0.05 0.04 0.03 0.02 0.03 0.02 0.02 0.02 0.02 0.01 0.02 0.02 0.02 0.02 0.04
0.00 0.00 0.00 0.00 0.00 0.01 0.01 0.00 0.01 0.01 0.02 0.02 0.02 0.02 0.05 0.06 0.09 0.14 0.21 0.27 0.26 0.31 0.35 0.40 0.40 0.30 0.29 0.17 0.12 0.11 0.10 0.10 0.07 0.05 0.05 0.04 0.04 0.02 0.02 0.03 0.02 0.02 0.02 0.01 0.01 0.01 0.01 0.01 0.02
0.00 0.00 0.00 0.00 0.01 0.01 0.01 0.01 0.01 0.01 0.02 0.03 0.02 0.02 0.06 0.07 0.09 0.16 0.24 0.30 0.33 0.33 0.32 0.35 0.32 0.21 0.18 0.15 0.14 0.16 0.19 0.14 0.09 0.05 0.05 0.03 0.03 0.02 0.01 0.01 0.02 0.02 0.02 0.01 0.01 0.01 0.01 0.01 0.02
0.00 0.00 0.00 0.01 0.01 0.01 0.01 0.01 0.02 0.01 0.01 0.03 0.04 0.05 0.10 0.09 0.07 0.11 0.14 0.23 0.25 0.26 0.32 0.33 0.27 0.18 0.13 0.12 0.13 0.16 0.15 0.12 0.10 0.05 0.04 0.02 0.02 0.02 0.01 0.01 0.01 0.02 0.01 0.01 0.01 0.01 0.01 0.01 0.01
0.00 0.00 0.00 0.01 0.01 0.01 0.01 0.02 0.02 0.02 0.02 0.02 0.04 0.07 0.10 0.09 0.07 0.11 0.18 0.15 0.15 0.17 0.24 0.28 0.25 0.20 0.15 0.11 0.13 0.17 0.15 0.14 0.10 0.05 0.03 0.02 0.02 0.01 0.01 0.01 0.01 0.02 0.02 0.02 0.01 0.01 0.01 0.00 0.01
0.00 0.00 0.00 0.00 0.01 0.01 0.01 0.01 0.02 0.03 0.03 0.03 0.06 0.08 0.07 0.07 0.07 0.10 0.17 0.15 0.14 0.17 0.21 0.22 0.18 0.15 0.14 0.12 0.14 0.16 0.14 0.15 0.12 0.06 0.03 0.02 0.02 0.01 0.01 0.02 0.01 0.01 0.01 0.01 0.01 0.01 0.01 0.01 0.02
0.00 0.00 0.00 0.00 0.00 0.00 0.01 0.02 0.02 0.02 0.03 0.05 0.06 0.07 0.07 0.08 0.09 0.13 0.18 0.16 0.13 0.17 0.23 0.25 0.22 0.16 0.13 0.14 0.18 0.18 0.17 0.16 0.16 0.11 0.06 0.03 0.01 0.01 0.01 0.01 0.00 0.00 0.00 0.01 0.01 0.01 0.01 0.02 0.02
0.00 0.00 0.00 0.00 0.00 0.01 0.01 0.03 0.03 0.03 0.05 0.07 0.07 0.07 0.06 0.08 0.12 0.15 0.15 0.14 0.11 0.12 0.13 0.17 0.19 0.16 0.13 0.17 0.21 0.22 0.24 0.22 0.20 0.11 0.06 0.04 0.02 0.02 0.01 0.01 0.00 0.00 0.00 0.00 0.00 0.00 0.01 0.01 0.01
0.00 0.00 0.00 0.00 0.00 0.00 0.00 0.02 0.04 0.04 0.05 0.09 0.07 0.07 0.08 0.08 0.14 0.13 0.11 0.11 0.08 0.07 0.08 0.10 0.13 0.13 0.12 0.13 0.16 0.17 0.16 0.14 0.11 0.10 0.06 0.05 0.04 0.03 0.01 0.01 0.01 0.01 0.00 0.00 0.00 0.00 0.00 0.00 0.00
0.00 0.00 0.00 0.00 0.00 0.00 0.01 0.02 0.07 0.06 0.05 0.07 0.07 0.07 0.05 0.06 0.13 0.08 0.05 0.07 0.07 0.05 0.05 0.07 0.11 0.14 0.13 0.14 0.12 0.12 0.12 0.13 0.14 0.15 0.12 0.08 0.05 0.04 0.03 0.03 0.02 0.01 0.01 0.01 0.00 0.00 0.00 0.00 0.00
0.00 0.00 0.00 0.00 0.00 0.00 0.01 0.03 0.08 0.10 0.05 0.05 0.05 0.05 0.04 0.03 0.04 0.05 0.05 0.07 0.11 0.07 0.05 0.06 0.08 0.10 0.12 0.14 0.13 0.13 0.12 0.13 0.14 0.15 0.12 0.09 0.05 0.03 0.02 0.02 0.01 0.01 0.01 0.01 0.00 0.01 0.01 0.00 0.00
0.00 0.00 0.00 0.00 0.00 0.01 0.02 0.05 0.08 0.12 0.09 0.07 0.07 0.05 0.03 0.02 0.03 0.04 0.04 0.07 0.10 0.07 0.05 0.05 0.07 0.06 0.08 0.09 0.10 0.13 0.11 0.11 0.10 0.11 0.12 0.09 0.04 0.02 0.01 0.01 0.01 0.01 0.01 0.00 0.00 0.01 0.01 0.01 0.00
0.00 0.00 0.00 0.00 0.00 0.01 0.03 0.07 0.13 0.09 0.06 0.05 0.06 0.05 0.03 0.03 0.03 0.04 0.04 0.05 0.06 0.06 0.04 0.04 0.05 0.06 0.06 0.06 0.06 0.09 0.11 0.09 0.07 0.06 0.07 0.07 0.04 0.02 0.01 0.01 0.02 0.01 0.01 0.01 0.00 0.01 0.01 0.01 0.01
0.00 0.00 0.00 0.00 0.01 0.02 0.06 0.10 0.13 0.09 0.07 0.06 0.06 0.06 0.05 0.03 0.03 0.04 0.04 0.03 0.03 0.03 0.02 0.02 0.03 0.05 0.05 0.05 0.06 0.05 0.09 0.09 0.05 0.06 0.05 0.06 0.06 0.03 0.02 0.02 0.03 0.03 0.02 0.02 0.01 0.01 0.01 0.01 0.01
0.00 0.00 0.00 0.00 0.00 0.02 0.06 0.09 0.14 0.15 0.11 0.10 0.08 0.08 0.06 0.04 0.03 0.03 0.02 0.02 0.01 0.01 0.02 0.02 0.03 0.04 0.06 0.07 0.09 0.07 0.07 0.10 0.10 0.09 0.08 0.08 0.09 0.06 0.04 0.04 0.04 0.04 0.03 0.02 0.02 0.02 0.02 0.02 0.01
0.00 0.00 0.00 0.00 0.00 0.02 0.04 0.05 0.06 0.08 0.11 0.13 0.11 0.09 0.07 0.05 0.04 0.03 0.02 0.01 0.01 0.01 0.02 0.02 0.03 0.05 0.07 0.08 0.10 0.11 0.10 0.08 0.12 0.13 0.14 0.13 0.15 0.11 0.09 0.07 0.07 0.06 0.04 0.03 0.03 0.03 0.03 0.03 0.03
0.00 0.00 0.00 0.00 0.00 0.01 0.03 0.04 0.07 0.11 0.14 0.15 0.13 0.11 0.08 0.06 0.05 0.05 0.04 0.03 0.02 0.02 0.02 0.03 0.04 0.05 0.06 0.07 0.09 0.11 0.16 0.11 0.12 0.15 0.17 0.16 0.18 0.17 0.13 0.10 0.08 0.07 0.05 0.05 0.06 0.05 0.04 0.04 0.05
MSLP
1009.77 1010.71 1011.70 1012.54 1013.04 1013.11 1012.73 1011.99 1011.06 1010.12 1009.37 1008.94 1008.86 1009.09 1009.54 1010.06 1010.51 1010.79 1010.89 1010.84 1010.71 1010.62 1010.63 1010.80 1011.13 1011.57 1012.04 1012.46 1012.78 1012.98 1013.07 1013.12 1013.17 1013.28 1013.48 1013.75 1014.08 1014.40 1014.68 1014.87 1014.96 1014.98 1014.95 1014.91 1014.89 1014.91 1014.96 1015.05 1015.13
1010.25 1011.35 1012.40 1013.17 1013.52 1013.37 1012.74 1011.76 1010.63 1009.56 1008.73 1008.26 1008.18 1008.42 1008.88 1009.40 1009.85 1010.15 1010.28 1010.28 1010.25 1010.26 1010.39 1010.67 1011.09 1011.59 1012.09 1012.52 1012.84 1013.04 1013.15 1013.22 1013.31 1013.47 1013.69 1013.98 1014.29 1014.58 1014.81 1014.94 1014.98 1014.96 1014.92 1014.90 1014.92 1014.99 1015.10 1015.23 1015.35
1010.88 1012.08 1013.10 1013.76 1013.91 1013.53 1012.68 1011.52 1010.27 1009.14 1008.31 1007.87 1007.82 1008.09 1008.55 1009.05 1009.47 1009.75 1009.88 1009.91 1009.94 1010.03 1010.25 1010.62 1011.10 1011.64 1012.16 1012.60 1012.91 1013.11 1013.23 1013.33 1013.45 1013.63 1013.87 1014.16 1014.45 1014.70 1014.87 1014.95 1014.96 1014.93 1014.90 1014.92 1014.99 1015.12 1015.29 1015.46 1015.62
1011.60 1012.79 1013.70 1014.18 1014.11 1013.51 1012.49 1011.23 1009.95 1008.85 1008.10 1007.75 1007.78 1008.09 1008.55 1009.02 1009.39 1009.62 1009.72 1009.75 1009.81 1009.95 1010.24 1010.67 1011.20 1011.76 1012.28 1012.70 1012.99 1013.19 1013.31 1013.42 1013.57 1013.77 1014.03 1014.31 1014.58 1014.79 1014.92 1014.97 1014.96 1014.94 1014.95 1015.01 1015.15 1015.34 1015.56 1015.77 1015.96
1012.27 1013.35 1014.08 1014.32 1014.02 1013.25 1012.12 1010.84 1009.62 1008.65 1008.06 1007.85 1007.99 1008.35 1008.81 1009.24 1009.54 1009.70 1009.76 1009.78 1009.85 1010.04 1010.37 1010.84 1011.39 1011.95 1012.44 1012.83 1013.09 1013.27 1013.39 1013.51 1013.68 1013.91 1014.18 1014.46 1014.72 1014.90 1015.01 1015.05 1015.04 1015.05 1015.10 1015.22 1015.41 1015.65 1015.91 1016.14 1016.33
1012.76 1013.64 1014.12 1014.10 1013.59 1012.67 1011.50 1010.29 1009.22 1008.46 1008.08 1008.06 1008.33 1008.75 1009.21 1009.58 1009.82 1009.91 1009.92 1009.93 1010.02 1010.24 1010.61 1011.10 1011.65 1012.19 1012.64 1012.98 1013.21 1013.35 1013.47 1013.60 1013.80 1014.05 1014.35 1014.64 1014.89 1015.08 1015.18 1015.22 1015.23 1015.26 1015.35 1015.51 1015.74 1016.01 1016.28 1016.51 1016.68
1012.98 1013.59 1013.77 1013.49 1012.79 1011.78 1010.65 1009.57 1008.72 1008.21 1008.06 1008.24 1008.64 1009.12 1009.57 1009.90 1010.07 1010.11 1010.09 1010.10 1010.22 1010.48 1010.89 1011.40 1011.95 1012.45 1012.86 1013.14 1013.32 1013.43 1013.54 1013.69 1013.92 1014.21 1014.53 1014.85 1015.12 1015.31 1015.42 1015.46 1015.49 1015.54 1015.65 1015.83 1016.07 1016.34 1016.60 1016.81 1016.95
1012.86 1013.18 1013.07 1012.55 1011.69 1010.65 1009.60 1008.70 1008.09 1007.84 1007.93 1008.29 1008.80 1009.32 1009.76 1010.04 1010.16 1010.17 1010.16 1010.20 1010.37 1010.70 1011.15 1011.69 1012.22 1012.69 1013.04 1013.28 1013.41 1013.50 1013.61 1013.78 1014.04 1014.37 1014.74 1015.09 1015.38 1015.59 1015.70 1015.75 1015.78 1015.83 1015.94 1016.12 1016.35 1016.60 1016.82 1017.00 1017.10
1012.46 1012.49 1012.12 1011.40 1010.44 1009.41 1008.47 1007.76 1007.38 1007.36 1007.65 1008.15 1008.73 1009.26 1009.67 1009.92 1010.02 1010.03 1010.05 1010.16 1010.41 1010.81 1011.32 1011.88 1012.42 1012.86 1013.17 1013.36 1013.46 1013.54 1013.65 1013.85 1014.14 1014.52 1014.93 1015.32 1015.64 1015.85 1015.97 1016.01 1016.03 1016.07 1016.16 1016.32 1016.52 1016.73 1016.93 1017.07 1017.14
1011.85 1011.65 1011.07 1010.21 1009.20 1008.21 1007.39 1006.85 1006.66 1006.81 1007.23 1007.80 1008.40 1008.92 1009.30 1009.52 1009.61 1009.65 1009.74 1009.94 1010.28 1010.77 1011.35 1011.95 1012.49 1012.91 1013.19 1013.35 1013.44 1013.51 1013.65 1013.88 1014.21 1014.63 1015.08 1015.50 1015.83 1016.06 1016.18 1016.22 1016.22 1016.24 1016.30 1016.42 1016.58 1016.76 1016.93 1017.05 1017.12
1011.18 1010.81 1010.09 1009.16 1008.15 1007.22 1006.51 1006.10 1006.03 1006.28 1006.75 1007.32 1007.88 1008.35 1008.68 1008.88 1008.98 1009.08 1009.25 1009.54 1009.99 1010.56 1011.21 1011.84 1012.39 1012.81 1013.09 1013.24 1013.33 1013.42 1013.58 1013.85 1014.22 1014.67 1015.15 1015.59 1015.94 1016.18 1016.30 1016.34 1016.33 1016.33 1016.37 1016.46 1016.59 1016.75 1016.90 1017.02 1017.10
1010.61 1010.13 1009.36 1008.41 1007.43 1006.57 1005.94 1005.61 1005.59 1005.85 1006.28 1006.79 1007.27 1007.66 1007.93 1008.11 1008.23 1008.39 1008.64 1009.03 1009.56 1010.20 1010.89 1011.55 1012.12 1012.54 1012.83 1013.00 1013.12 1013.25 1013.45 1013.75 1014.16 1014.63 1015.12 1015.57 1015.94 1016.18 1016.32 1016.36 1016.37 1016.37 1016.40 1016.48 1016.60 1016.75 1016.91 1017.04 1017.15
1010.24 1009.73 1008.95 1008.03 1007.11 1006.32 1005.74 1005.44 1005.40 1005.59 1005.92 1006.31 1006.67 1006.97 1007.18 1007.33 1007.48 1007.68 1007.99 1008.45 1009.03 1009.71 1010.42 1011.09 1011.66 1012.11 1012.42 1012.64 1012.82 1013.01 1013.26 1013.60 1014.02 1014.51 1015.00 1015.45 1015.82 1016.09 1016.25 1016.32 1016.36 1016.39 1016.44 1016.54 1016.68 1016.84 1017.01 1017.18 1017.32
1010.14 1009.64 1008.90 1008.04 1007.20 1006.46 1005.91 1005.59 1005.48 1005.56 1005.75 1005.98 1006.21 1006.39 1006.54 1006.67 1006.83 1007.06 1007.41 1007.88 1008.47 1009.13 1009.82 1010.48 1011.05 1011.52 1011.89 1012.18 1012.44 1012.71 1013.02 1013.40 1013.84 1014.33 1014.81 1015.25 1015.62 1015.90 1016.10 1016.24 1016.33 1016.42 1016.53 1016.67 1016.84 1017.03 1017.23 1017.43 1017.61
1010.27 1009.80 1009.13 1008.35 1007.59 1006.91 1006.37 1006.00 1005.80 1005.74 1005.76 1005.84 1005.93 1006.02 1006.11 1006.22 1006.38 1006.61 1006.95 1007.39 1007.93 1008.53 1009.15 1009.77 1010.33 1010.83 1011.27 1011.66 1012.02 1012.39 1012.78 1013.21 1013.66 1014.12 1014.58 1015.00 1015.37 1015.67 1015.92 1016.13 1016.31 1016.48 1016.67 1016.86 1017.08 1017.31 1017.54 1017.76 1017.97
1010.53 1010.10 1009.50 1008.83 1008.15 1007.53 1007.01 1006.59 1006.29 1006.09 1005.96 1005.89 1005.86 1005.87 1005.92 1006.01 1006.15 1006.37 1006.66 1007.03 1007.47 1007.96 1008.48 1009.03 1009.57 1010.11 1010.63 1011.14 1011.63 1012.11 1012.59 1013.06 1013.51 1013.95 1014.36 1014.75 1015.10 1015.43 1015.73 1016.01 1016.29 1016.56 1016.82 1017.09 1017.35 1017.61 1017.86 1018.10 1018.33
1010.79 1010.40 1009.90 1009.34 1008.77 1008.22 1007.72 1007.27 1006.89 1006.56 1006.30 1006.11 1005.98 1005.93 1005.94 1006.02 1006.15 1006.33 1006.55 1006.81 1007.12 1007.47 1007.87 1008.33 1008.86 1009.43 1010.04 1010.67 1011.30 1011.91 1012.47 1012.99 1013.44 1013.84 1014.20 1014.54 1014.87 1015.20 1015.54 1015.90 1016.26 1016.62 1016.96 1017.29 1017.59 1017.87 1018.13 1018.38 1018.61
1010.94 1010.60 1010.20 1009.77 1009.33 1008.89 1008.43 1007.97 1007.52 1007.10 1006.73 1006.44 1006.24 1006.14 1006.14 1006.21 1006.33 1006.47 1006.61 1006.76 1006.92 1007.12 1007.39 1007.76 1008.25 1008.85 1009.55 1010.30 1011.07 1011.80 1012.46 1013.01 1013.46 1013.82 1014.12 1014.40 1014.68 1015.00 1015.37 1015.78 1016.21 1016.64 1017.05 1017.42 1017.75 1018.04 1018.30 1018.54 1018.77
1010.88 1010.62 1010.36 1010.10 1009.82 1009.50 1009.11 1008.67 1008.17 1007.67 1007.20 1006.82 1006.57 1006.44 1006.43 1006.51 1006.63 1006.74 1006.81 1006.85 1006.88 1006.94 1007.08 1007.35 1007.81 1008.43 1009.20 1010.06 1010.95 1011.80 1012.54 1013.13 1013.57 1013.89 1014.12 1014.33 1014.57 1014.86 1015.23 1015.67 1016.14 1016.62 1017.07 1017.47 1017.81 1018.10 1018.34 1018.58 1018.81
1010.62 1010.48 1010.39 1010.33 1010.24 1010.07 1009.78 1009.35 1008.82 1008.24 1007.69 1007.23 1006.91 1006.76 1006.75 1006.84 1006.97 1007.08 1007.11 1007.08 1007.00 1006.94 1006.97 1007.16 1007.56 1008.18 1009.00 1009.94 1010.93 1011.86 1012.67 1013.29 1013.73 1014.01 1014.19 1014.34 1014.52 1014.78 1015.13 1015.57 1016.07 1016.57 1017.04 1017.45 1017.78 1018.06 1018.29 1018.51 1018.75
1010.20 1010.22 1010.35 1010.52 1010.65 1010.65 1010.46 1010.07 1009.50 1008.83 1008.17 1007.61 1007.22 1007.04 1007.03 1007.15 1007.31 1007.43 1007.47 1007.40 1007.26 1007.12 1007.05 1007.15 1007.50 1008.10 1008.92 1009.90 1010.94 1011.93 1012.79 1013.44 1013.88 1014.14 1014.28 1014.39 1014.52 1014.75 1015.08 1015.51 1016.01 1016.51 1016.98 1017.38 1017.71 1017.96 1018.18 1018.40 1018.64
1009.69 1009.93 1010.32 1010.76 1011.12 1011.30 1011.20 1010.82 1010.20 1009.43 1008.64 1007.96 1007.48 1007.24 1007.22 1007.37 1007.58 1007.76 1007.84 1007.78 1007.62 1007.42 1007.28 1007.31 1007.57 1008.11 1008.90 1009.87 1010.92 1011.93 1012.82 1013.49 1013.95 1014.21 1014.35 1014.44 1014.56 1014.76 1015.08 1015.50 1015.98 1016.47 1016.93 1017.32 1017.63 1017.87 1018.07 1018.29 1018.54
1009.21 1009.70 1010.37 1011.08 1011.67 1012.01 1011.99 1011.61 1010.91 1010.01 1009.08 1008.25 1007.66 1007.35 1007.32 1007.49 1007.77 1008.02 1008.16 1008.15 1008.01 1007.79 1007.59 1007.54 1007.71 1008.16 1008.87 1009.78 1010.79 1011.80 1012.69 1013.39 1013.88 1014.18 1014.35 1014.46 1014.59 1014.80 1015.11 1015.52 1015.99 1016.47 1016.91 1017.28 1017.57 1017.80 1018.00 1018.21 1018.46
1008.81 1009.56 1010.51 1011.48 1012.28 1012.74 1012.78 1012.37 1011.58 1010.54 1009.45 1008.48 1007.77 1007.38 1007.33 1007.52 1007.85 1008.19 1008.42 1008.48 1008.37 1008.15 1007.91 1007.78 1007.84 1008.17 1008.76 1009.58 1010.52 1011.49 1012.37 1013.11 1013.65 1014.01 1014.24 1014.41 1014.59 1014.83 1015.16 1015.57 1016.03 1016.49 1016.92 1017.28 1017.55 1017.77 1017.96 1018.16 1018.41
1008.51 1009.52 1010.72 1011.89 1012.85 1013.41 1013.47 1013.02 1012.14 1010.98 1009.74 1008.63 1007.80 1007.34 1007.25 1007.46 1007.85 1008.26 1008.58 1008.71 1008.65 1008.44 1008.17 1007.96 1007.91 1008.11 1008.56 1009.25 1010.10 1011.01 1011.89 1012.65 1013.26 1013.71 1014.03 1014.29 1014.55 1014.84 1015.20 1015.62 1016.07 1016.53 1016.94 1017.28 1017.54 1017.75 1017.93 1018.12 1018.36
1008.32 1009.53 1010.90 1012.22 1013.28 1013.89 1013.96 1013.47 1012.51 1011.24 1009.90 1008.68 1007.77 1007.25 1007.13 1007.35 1007.77 1008.25 1008.63 1008.84 1008.83 1008.63 1008.34 1008.05 1007.90 1007.97 1008.28 1008.84 1009.58 1010.43 1011.29 1012.09 1012.76 1013.31 1013.75 1014.11 1014.46 1014.81 1015.21 1015.64 1016.09 1016.53 1016.93 1017.26 1017.51 1017.72 1017.89 1018.07 1018.29
1008.20 1009.53 1010.99 1012.37 1013.46 1014.08 1014.13 1013.61 1012.61 1011.30 1009.90 1008.64 1007.69 1007.13 1007.00 1007.22 1007.66 1008.17 1008.61 1008.86 1008.89 1008.71 1008.41 1008.08 1007.84 1007.79 1007.98 1008.42 1009.07 1009.85 1010.69 1011.51 1012.26 1012.90 1013.44 1013.91 1014.34 1014.76 1015.19 1015.63 1016.07 1016.49 1016.86 1017.18 1017.43 1017.63 1017.80 1017.97 1018.17
1008.10 1009.46 1010.92 1012.27 1013.32 1013.90 1013.93 1013.40 1012.41 1011.12 1009.75 1008.52 1007.57 1007.03 1006.89 1007.10 1007.54 1008.07 1008.52 1008.81 1008.87 1008.72 1008.42 1008.07 1007.78 1007.66 1007.76 1008.11 1008.67 1009.40 1010.21 1011.05 1011.84 1012.56 1013.18 1013.73 1014.23 1014.69 1015.14 1015.58 1016.00 1016.39 1016.74 1017.04 1017.28 1017.48 1017.66 1017.83 1018.02
1008.02 1009.30 1010.65 1011.89 1012.84 1013.35 1013.35 1012.85 1011.92 1010.73 1009.46 1008.32 1007.46 1006.95 1006.83 1007.03 1007.46 1007.97 1008.42 1008.71 1008.80 1008.68 1008.41 1008.08 1007.80 1007.66 1007.72 1008.00 1008.50 1009.18 1009.97 1010.80 1011.61 1012.37 1013.04 1013.64 1014.17 1014.65 1015.09 1015.51 1015.89 1016.25 1016.57 1016.85 1017.09 1017.30 1017.49 1017.67 1017.86
1007.95 1009.07 1010.24 1011.29 1012.09 1012.50 1012.48 1012.02 1011.21 1010.18 1009.09 1008.10 1007.36 1006.93 1006.84 1007.03 1007.42 1007.89 1008.31 1008.60 1008.71 1008.64 1008.44 1008.17 1007.94 1007.83 1007.89 1008.16 1008.62 1009.26 1010.01 1010.81 1011.61 1012.37 1013.06 1013.67 1014.20 1014.67 1015.09 1015.46 1015.81 1016.12 1016.40 1016.66 1016.90 1017.12 1017.33 1017.54 1017.75
Thickness
5818 5817 5813 5801 5780 5763 5762 5783 5802 5805 5810 5818 5820 5811 5798 5790 5780 5771 5794 5802 5799 5793 5788 5785 5783 5782 5780 5779 5777 5776 5775 5774 5773 5773 5772 5771 5769 5768 5767 5765 5763 5761 5759 5758 5756 5754 5753 5751 5750
5819 5817 5806 5788 5765 5748 5764 5793 5801 5809 5818 5822 5818 5811 5801 5794 5800 5794 5794 5798 5797 5791 5787 5784 5781 5779 5778 5777 5775 5774 5773 5772 5771 5771 5770 5769 5768 5766 5765 5763 5761 5759 5758 5756 5754 5753 5751 5749 5748
5820 5816 5793 5775 5760 5754 5770 5798 5808 5819 5827 5823 5812 5811 5802 5794 5800 5797 5799 5797 5794 5789 5785 5782 5780 5778 5776 5774 5773 5772 5771 5770 5770 5769 5768 5767 5766 5765 5763 5761 5760 5758 5756 5754 5752 5751 5749 5747 5746
5815 5800 5786 5766 5759 5778 5790 5805 5819 5818 5821 5822 5812 5799 5803 5808 5806 5803 5799 5796 5791 5786 5783 5780 5778 5776 5774 5773 5771 5770 5769 5768 5768 5767 5766 5765 5764 5763 5761 5760 5758 5756 5754 5752 5750 5748 5747 5745 5744
5810 5787 5768 5759 5770 5794 5812 5823 5826 5817 5815 5816 5810 5793 5792 5805 5810 5802 5796 5792 5788 5783 5780 5777 5775 5774 5772 5771 5770 5768 5767 5766 5766 5765 5764 5763 5762 5761 5759 5758 5756 5754 5752 5750 5748 5746 5745 5743 5742
5794 5781 5761 5757 5778 5803 5819 5830 5829 5819 5814 5814 5808 5793 5788 5800 5800 5796 5793 5788 5786 5781 5777 5774 5772 5771 5770 5769 5767 5766 5765 5765 5764 5763 5762 5761 5760 5759 5757 5755 5754 5751 5750 5748 5746 5744 5743 5742 5741
5788 5776 5765 5771 5782 5798 5819 5834 5828 5819 5812 5813 5813 5789 5787 5794 5798 5796 5790 5785 5781 5777 5774 5771 5768 5767 5766 5766 5765 5764 5763 5762 5762 5761 5760 5759 5757 5756 5755 5753 5751 5749 5747 5745 5744 5742 5741 5740 5739
5803 5781 5772 5776 5785 5798 5827 5835 5835 5826 5816 5824 5818 5793 5785 5793 5798 5794 5786 5781 5777 5773 5770 5767 5765 5763 5762 5762 5762 5761 5760 5760 5759 5758 5757 5756 5755 5754 5752 5751 5749 5747 5745 5743 5742 5740 5739 5739 5738
5812 5776 5765 5780 5793 5807 5829 5829 5831 5834 5823 5818 5817 5810 5807 5803 5797 5788 5779 5773 5769 5767 5765 5764 5761 5759 5759 5758 5758 5758 5757 5757 5757 5756 5755 5754 5753 5752 5750 5749 5747 5745 5743 5741 5740 5739 5738 5737 5736
5799 5770 5782 5806 5815 5818 5828 5831 5830 5820 5811 5807 5806 5807 5807 5801 5792 5784 5776 5769 5765 5761 5760 5760 5758 5756 5756 5755 5755 5754 5755 5754 5754 5754 5753 5752 5750 5749 5748 5747 5745 5744 5742 5740 5738 5737 5736 5735 5735
5802 5790 5807 5819 5828 5830 5828 5830 5835 5818 5804 5807 5804 5800 5799 5794 5787 5781 5776 5771 5766 5763 5760 5757 5756 5754 5753 5753 5751 5751 5752 5752 5751 5750 5750 5750 5748 5747 5746 5745 5743 5742 5740 5738 5737 5736 5735 5734 5733
5807 5811 5820 5825 5834 5832 5829 5828 5826 5821 5818 5825 5819 5810 5799 5791 5784 5779 5773 5768 5764 5759 5758 5756 5754 5752 5751 5750 5749 5748 5749 5749 5748 5748 5748 5748 5746 5745 5744 5743 5742 5740 5739 5738 5736 5735 5734 5733 5732
5808 5813 5824 5830 5832 5832 5830 5825 5823 5819 5826 5826 5819 5808 5797 5790 5784 5779 5773 5767 5764 5758 5755 5753 5752 5751 5749 5747 5746 5746 5746 5747 5747 5747 5747 5746 5745 5744 5743 5742 5741 5739 5738 5737 5735 5734 5733 5732 5731
5812 5816 5822 5827 5830 5831 5823 5820 5818 5816 5822 5817 5811 5802 5796 5789 5783 5776 5769 5764 5761 5758 5755 5752 5750 5750 5747 5746 5745 5745 5745 5746 5747 5746 5746 5745 5745 5744 5743 5741 5740 5739 5738 5737 5735 5734 5733 5731 5730
5817 5808 5812 5823 5827 5827 5822 5805 5810 5817 5816 5808 5804 5799 5791 5785 5781 5775 5771 5765 5762 5759 5754 5752 5749 5748 5745 5744 5744 5744 5744 5745 5745 5745 5744 5744 5744 5744 5743 5741 5740 5739 5738 5737 5736 5734 5733 5731 5730
5803 5793 5785 5810 5823 5824 5809 5786 5808 5815 5810 5802 5800 5796 5789 5781 5778 5775 5772 5766 5761 5757 5752 5751 5750 5747 5745 5744 5744 5744 5744 5744 5744 5744 5743 5743 5744 5744 5742 5741 5740 5739 5738 5737 5735 5733 5731 5729 5728
5780 5769 5775 5796 5819 5819 5804 5787 5805 5809 5805 5798 5796 5792 5784 5778 5774 5773 5771 5767 5761 5757 5751 5748 5748 5746 5744 5743 5742 5743 5743 5742 5742 5742 5742 5742 5743 5743 5742 5741 5740 5739 5738 5736 5735 5732 5730 5727 5726
5761 5767 5774 5783 5807 5810 5795 5791 5801 5803 5800 5793 5791 5787 5781 5776 5773 5772 5770 5767 5762 5757 5752 5748 5746 5744 5743 5741 5740 5740 5739 5740 5740 5741 5741 5741 5741 5741 5741 5740 5739 5738 5737 5735 5734 5732 5730 5728 5727
5777 5773 5772 5788 5809 5800 5790 5788 5794 5796 5794 5787 5783 5781 5778 5774 5773 5770 5768 5766 5760 5755 5751 5748 5745 5744 5742 5740 5738 5736 5735 5736 5737 5739 5740 5740 5740 5740 5740 5739 5738 5737 5736 5734 5734 5732 5729 5727 5727
5779 5771 5774 5790 5806 5797 5782 5781 5790 5793 5791 5788 5784 5779 5776 5772 5768 5765 5764 5762 5759 5754 5750 5747 5745 5744 5742 5741 5739 5738 5736 5735 5735 5736 5737 5738 5738 5738 5739 5738 5737 5737 5735 5733 5733 5732 5728 5727 5727
5777 5772 5777 5782 5792 5791 5781 5769 5777 5786 5790 5789 5787 5782 5778 5775 5768 5765 5763 5761 5758 5755 5752 5751 5747 5745 5743 5742 5740 5737 5734 5731 5730 5731 5733 5736 5737 5738 5738 5737 5737 5736 5735 5733 5732 5732 5729 5724 5725
5768 5790 5792 5789 5773 5758 5769 5742 5764 5774 5777 5781 5782 5779 5775 5774 5769 5765 5764 5761 5759 5758 5756 5753 5749 5746 5744 5743 5740 5737 5732 5729 5730 5732 5733 5734 5735 5736 5737 5737 5736 5735 5735 5733 5732 5732 5730 5727 5723
5783 5799 5794 5788 5770 5753 5756 5745 5750 5766 5766 5772 5778 5778 5775 5773 5771 5768 5766 5763 5761 5759 5756 5753 5750 5747 5745 5743 5741 5737 5734 5733 5732 5732 5731 5732 5733 5735 5736 5736 5735 5734 5734 5733 5732 5731 5730 5728 5725
5799 5792 5781 5765 5749 5731 5744 5741 5740 5756 5766 5773 5778 5779 5775 5772 5772 5769 5766 5763 5759 5758 5756 5753 5749 5746 5745 5743 5740 5738 5735 5733 5731 5730 5729 5730 5731 5733 5734 5734 5734 5734 5733 5732 5731 5730 5729 5727 5725
5789 5758 5731 5727 5716 5720 5742 5740 5743 5771 5780 5780 5779 5778 5777 5775 5771 5766 5763 5759 5757 5756 5754 5752 5749 5746 5745 5742 5740 5738 5736 5735 5733 5732 5730 5730 5729 5730 5732 5733 5732 5732 5731 5731 5730 5728 5727 5726 5724
5779 5759 5726 5714 5710 5718 5736 5735 5754 5778 5785 5787 5785 5782 5780 5774 5771 5767 5764 5762 5759 5757 5755 5752 5749 5746 5744 5742 5740 5739 5737 5736 5735 5734 5733 5732 5732 5732 5733 5732 5731 5730 5730 5729 5728 5726 5725 5724 5723
5777 5764 5761 5736 5727 5715 5722 5740 5760 5777 5779 5780 5779 5777 5774 5773 5772 5769 5766 5763 5760 5758 5756 5754 5750 5747 5745 5743 5741 5738 5737 5736 5735 5735 5734 5734 5733 5733 5732 5731 5729 5728 5727 5726 5725 5723 5722 5721 5720
5794 5781 5751 5732 5715 5707 5718 5729 5738 5758 5763 5770 5770 5769 5770 5770 5770 5768 5766 5764 5762 5760 5757 5755 5752 5749 5747 5744 5741 5740 5738 5737 5736 5734 5733 5733 5733 5732 5730 5728 5727 5725 5724 5723 5721 5720 5719 5718 5717
5782 5774 5757 5735 5729 5711 5704 5723 5763 5764 5766 5765 5766 5769 5769 5768 5768 5767 5765 5764 5762 5759 5756 5754 5751 5748 5746 5743 5741 5740 5738 5736 5735 5733 5732 5732 5731 5730 5728 5726 5724 5722 5720 5719 5717 5716 5715 5713 5712
5784 5771 5755 5734 5728 5724 5715 5730 5774 5770 5769 5768 5767 5768 5771 5769 5767 5766 5764 5762 5760 5756 5755 5753 5751 5748 5746 5743 5741 5739 5737 5735 5733 5731 5731 5730 5729 5727 5725 5723 5720 5719 5717 5716 5714 5712 5712 5710 5708